Stations météo

Publicité
Lyon/Satolas, France (7481): Température de l'air & dewpoint: 25.09.2020 09:00:00 - 01.10.2020 09:00:00 (CEST)Lyon/Satolas, France (7481): Température de l'air 5cm: 25.09.2020 09:00:00 - 01.10.2020 09:00:00 (CEST)Lyon/Satolas, France (7481): Température de l'air -20cm & Température de l'air -100cm: 25.09.2020 09:00:00 - 01.10.2020 09:00:00 (CEST)Lyon/Satolas, France (7481): Vitesse du vent & gusts: 25.09.2020 09:00:00 - 01.10.2020 09:00:00 (CEST)Lyon/Satolas, France (7481): Direction du vent: 25.09.2020 09:00:00 - 01.10.2020 09:00:00 (CEST)Lyon/Satolas, France (7481): reduced air pressure: 25.09.2020 09:00:00 - 01.10.2020 09:00:00 (CEST)Lyon/Satolas, France (7481): visibility: 25.09.2020 09:00:00 - 01.10.2020 09:00:00 (CEST)Lyon/Satolas, France (7481): Quantités de précipitations: 25.09.2020 09:00:00 - 01.10.2020 09:00:00 (CEST)
Date & Time tt [°C] td [°C] tt 5cm [°C] tt -20cm [°C] tt -100cm [°C] ff [km/h] ff [knt] fx [km/h] fx [knt] dd ppp [hPa] vv [km] rr [mm]
01.10.2020 09:00:00 14,7 9,1 11,9 15,7 18,9 14 7 27 15 SSE 1006,8 30 0,0
01.10.2020 08:00:00 13,1 9,2 11,4 15,8 19,0 13 7 24 13 SE 1007,1 30 0,0
01.10.2020 07:00:00 13,4 9,3 11,6 15,9 19,0 11 6 22 12 SE 1007,3 30 0,0
01.10.2020 06:00:00 13,3 9,4 10,8 16,1 18,9 13 7 22 12 SSE 1008,4 30 0,0
01.10.2020 05:00:00 14,7 9,5 9,4 16,2 19,0 12 6 20 11 SSE 1008,8 47 0,0
01.10.2020 04:00:00 12,2 9,9 8,6 16,4 19,0 9 5 20 11 SSE 1009,7 30 0,0
01.10.2020 03:00:00 13,2 9,6 10,0 16,5 18,9 9 5 19 10 S 1010,3 30 0,0
01.10.2020 02:00:00 14,1 10,3 12,0 16,7 19,0 6 3 8 4 SSE 1010,7 30 0,0
01.10.2020 01:00:00 14,5 10,5 12,0 16,9 19,0 6 4 14 8 SE 1011,1 30 0,0
01.10.2020 00:00:00 14,9 10,9 13,0 17,1 19,0 8 4 18 10 SE 1011,3 30 0,0
30.09.2020 23:00:00 14,7 11,8 13,3 17,2 19,0 11 6 18 10 SE 1011,8 25 0,0
30.09.2020 22:00:00 15,2 12,1 13,3 17,4 19,0 15 8 19 10 SE 1011,8 30 0,0
30.09.2020 21:00:00 15,9 11,7 13,0 17,6 19,0 6 3 10 5 ESE 1012,0 30 0,0
30.09.2020 20:00:00 17,1 11,8 15,2 17,6 19,0 5 3 11 6 E 1012,0 30 0,0
30.09.2020 19:00:00 19,1 11,9 19,4 17,5 19,0 3 1 9 5 E 1011,8 30 0,0
30.09.2020 18:00:00 20,1 11,3 20,9 17,3 19,0 4 2 12 6 W 1011,8 30 0,0
30.09.2020 17:00:00 20,2 11,4 24,4 17,0 19,1 6 4 16 9 ENE 1012,4 30 0,0
30.09.2020 16:00:00 19,2 11,2 22,1 16,5 19,1 5 3 16 8 E 1013,0 30 0,0
30.09.2020 15:00:00 18,8 10,9 22,4 16,0 19,1 8 5 33 18 E 1013,8 25 0,0
30.09.2020 14:00:00 17,7 11,3 21,9 15,4 19,1 5 3 12 7 ESE 1014,9 20 0,0
30.09.2020 13:00:00 17,4 11,4 21,4 14,9 19,1 5 3 14 8 NNE 1015,7 18 0,0
30.09.2020 12:00:00 15,5 11,1 21,8 14,5 19,1 5 3 11 6 E 1016,1 12 0,0
30.09.2020 11:00:00 13,5 10,7 19,2 14,4 19,1 5 3 9 5 NNE 1016,9 9 0,0
30.09.2020 10:00:00 11,6 10,2 12,2 14,4 19,1 2 1 11 6 SW 1017,6 9 0,0
30.09.2020 09:00:00 9,6 9,1 6,3 14,5 19,2 4 2 6 4 S 1017,7 8 0,0
30.09.2020 08:00:00 8,1 7,2 6,1 14,7 19,2 5 3 9 5 S 1017,8 6 0,0
30.09.2020 07:00:00 9,5 8,7 6,6 14,8 19,2 6 4 11 6 SSE 1017,5 9 0,0
30.09.2020 06:00:00 9,1 8,2 5,6 15,0 19,2 9 5 12 7 SE 1017,7 1,8 0,0
30.09.2020 05:00:00 9,7 8,8 6,5 15,1 19,2 8 5 10 5 SE 1018,0 12 0,0
30.09.2020 04:00:00 10,3 9,2 7,4 15,2 19,2 5 3 9 5 SSE 1018,4 13 0,0
30.09.2020 03:00:00 10,8 9,4 8,3 15,4 19,2 5 3 6 3 S 1019,0 20 0,0
30.09.2020 02:00:00 10,9 9,5 8,4 15,5 19,3 2 1 7 4 W 1019,1 20 0,0
30.09.2020 01:00:00 10,8 9,4 8,2 15,7 19,3 2 1 8 4 W 1019,3 30 0,0
30.09.2020 00:00:00 11,1 9,5 7,2 15,9 19,3 6 4 8 5 WSW 1019,5 30 0,0
29.09.2020 23:00:00 11,3 9,9 7,3 16,0 19,3 3 2 5 3 W 1019,4 40 0,0
29.09.2020 22:00:00 12,0 9,7 8,1 16,2 19,3 2 1 7 4 S 1019,5 40 0,0
29.09.2020 21:00:00 13,5 9,7 9,0 16,4 19,3 3 1 8 5 W 1019,2 40 0,0
29.09.2020 20:00:00 14,7 10,1 10,7 16,4 19,3 5 3 13 7 N 1019,0 40 0,0
29.09.2020 19:00:00 16,1 10,2 15,5 16,4 19,4 8 5 20 11 NNW 1019,1 40 0,0
29.09.2020 18:00:00 16,8 9,7 17,3 16,3 19,4 13 7 21 12 N 1018,7 40 0,0
29.09.2020 17:00:00 17,2 8,9 19,2 16,1 19,4 12 7 22 12 N 1018,8 40 0,0
29.09.2020 16:00:00 17,1 9,0 19,0 15,9 19,4 13 7 23 12 N 1019,1 40 0,0
29.09.2020 15:00:00 17,0 9,4 19,3 15,6 19,4 14 8 24 13 N 1019,4 40 0,0
29.09.2020 14:00:00 16,8 9,9 19,2 15,3 19,5 13 7 24 13 N 1020,2 40 0,0
29.09.2020 13:00:00 16,2 10,5 19,2 14,9 19,5 14 8 23 12 N 1020,5 40 0,0
29.09.2020 12:00:00 14,8 10,0 19,3 14,7 19,5 10 5 18 10 NNW 1020,8 40 0,0
29.09.2020 11:00:00 13,9 9,7 19,5 14,5 19,5 6 4 15 8 NW 1021,3 40 0,0
29.09.2020 10:00:00 12,3 11,4 15,1 14,4 19,5 4 2 8 4 SW 1021,4 25 0,0
29.09.2020 09:00:00 10,4 10,1 8,1 14,5 19,6 2 1 5 3 ESE 1021,1 0,5 0,0
29.09.2020 08:00:00 10,3 9,7 8,2 14,5 19,6 0 0 5 3 N 1020,5 0,4 0,0
29.09.2020 07:00:00 10,9 10,1 9,8 14,6 19,6 4 2 5 3 SW 1020,1 30 0,0
29.09.2020 06:00:00 11,4 10,1 10,9 14,6 19,6 2 1 13 7 ESE 1020,2 40 0,0
29.09.2020 05:00:00 11,3 10,2 10,9 14,6 19,7 10 5 15 8 SE 1020,3 40 0,0
29.09.2020 04:00:00 11,2 10,1 10,8 14,6 19,7 6 3 16 9 SSE 1020,5 40 0,0
29.09.2020 03:00:00 11,1 10,2 10,7 14,7 19,7 9 5 13 7 ESE 1020,5 40 0,0
29.09.2020 02:00:00 11,0 10,2 10,6 14,7 19,8 6 3 12 7 SSE 1020,4 35 0,0
29.09.2020 01:00:00 10,8 10,2 10,6 14,7 19,8 8 5 14 7 SSE 1020,3 30 0,0
29.09.2020 00:00:00 10,7 10,1 10,5 14,7 19,8 9 5 14 8 SSE 1020,4 25 0,0
28.09.2020 23:00:00 10,6 10,0 10,3 14,8 19,8 6 3 12 6 SE 1019,9 10 0,4
28.09.2020 22:00:00 10,6 10,0 10,4 14,8 19,8 8 4 22 12 WNW 1019,7 5 0,6
28.09.2020 21:00:00 11,0 10,1 10,6 14,9 19,9 12 7 19 10 W 1019,0 10 0,2
28.09.2020 20:00:00 11,2 10,1 10,7 14,7 19,9 8 4 16 9 WNW 1018,0 10 0,6
28.09.2020 19:00:00 11,4 10,1 11,0 14,8 19,9 8 5 20 11 WNW 1017,0 10 0,4
28.09.2020 18:00:00 11,8 10,0 11,3 14,8 19,9 15 8 25 14 WNW 1016,1 30 0,2
28.09.2020 17:00:00 12,0 10,2 11,8 14,7 19,9 17 9 27 15 WNW 1015,6 10 0,0
28.09.2020 16:00:00 12,0 10,4 12,0 14,6 20,0 13 7 21 11 WNW 1015,0 8 0,0
28.09.2020 15:00:00 12,4 10,3 12,8 14,5 20,0 13 7 20 11 W 1014,6 20 0,0
28.09.2020 14:00:00 12,1 10,8 12,8 14,3 20,0 4 2 11 6 W 1014,2 20 0,0
28.09.2020 13:00:00 11,4 10,5 11,8 14,2 20,1 5 3 12 6 SW 1014,0 10 0,0
28.09.2020 12:00:00 11,0 10,4 11,6 14,0 20,1 7 4 16 9 SSW 1013,4 10 0,2
28.09.2020 11:00:00 10,7 10,4 10,6 13,9 20,1 7 4 14 8 SW 1012,9 6 0,0
28.09.2020 10:00:00 10,0 9,7 9,5 14,0 20,2 6 3 14 7 S 1012,3 8 0,6
28.09.2020 09:00:00 9,4 9,1 9,1 14,0 20,2 11 6 18 10 SE 1011,9 1,9 1,2
28.09.2020 08:00:00 9,1 8,6 9,1 14,0 20,2 9 5 15 8 SE 1011,5 2,8 0,8
28.09.2020 07:00:00 9,1 8,6 8,9 14,0 20,2 7 4 14 8 SSE 1010,9 9 0,2
28.09.2020 06:00:00 9,1 8,3 8,8 14,1 20,3 9 5 16 9 SSE 1010,6 10 0,0
28.09.2020 05:00:00 9,0 8,1 8,7 14,1 20,3 9 5 17 9 S 1010,5 10 0,0
28.09.2020 04:00:00 8,9 7,8 8,7 14,2 20,3 11 6 19 10 S 1010,3 8 0,2
28.09.2020 03:00:00 8,9 7,7 8,4 14,2 20,4 13 7 23 13 SSE 1010,5 40 0,0
28.09.2020 02:00:00 8,6 7,7 8,2 14,3 20,4 15 8 26 14 S 1010,6 15 0,2
28.09.2020 01:00:00 8,5 7,6 8,2 14,4 20,4 13 7 23 13 S 1010,6 15 0,4
28.09.2020 00:00:00 8,5 7,6 8,1 14,4 20,4 14 7 24 13 S 1010,3 30 0,2
27.09.2020 23:00:00 8,5 7,6 8,1 14,6 20,5 15 8 26 14 SSE 1010,4 11 0,4
27.09.2020 22:00:00 8,6 8,0 8,4 14,6 20,5 14 7 22 12 S 1010,2 2,3 1,2
27.09.2020 21:00:00 8,7 7,6 8,4 14,7 20,5 13 7 23 12 SSE 1009,6 8 1,2
27.09.2020 20:00:00 9,0 7,6 8,4 14,7 20,5 13 7 21 11 SE 1009,4 9 0,8
27.09.2020 19:00:00 9,1 7,4 8,4 14,8 20,6 5 3 23 12 SSE 1009,3 10 1,4
27.09.2020 18:00:00 9,5 7,8 8,9 14,8 20,6 13 7 21 11 S 1009,2 10 0,4
27.09.2020 17:00:00 9,6 7,5 9,4 14,6 20,6 11 6 22 12 SSW 1009,1 10 0,2
27.09.2020 16:00:00 9,4 7,7 8,8 14,5 20,6 11 6 24 13 SSW 1009,2 10 0,4
27.09.2020 15:00:00 9,3 7,2 10,3 14,4 20,7 16 9 31 17 SSW 1009,2 10 0,4
27.09.2020 14:00:00 9,0 7,6 8,5 14,3 20,7 18 10 29 15 SW 1009,2 10 1,2
27.09.2020 13:00:00 9,2 7,1 9,0 14,3 20,7 17 9 29 16 WSW 1009,1 9 0,4
27.09.2020 12:00:00 9,0 7,6 8,7 14,2 20,7 13 7 21 11 S 1009,0 12 0,2
27.09.2020 11:00:00 8,4 7,2 8,0 14,2 20,8 11 6 18 10 S 1009,2 9 0,6
27.09.2020 10:00:00 7,7 6,8 7,5 14,3 20,8 12 7 21 11 SSE 1009,1 9 1,4
27.09.2020 09:00:00 7,5 6,6 7,0 14,4 20,8 9 5 16 9 SSE 1008,9 8 2,0
27.09.2020 08:00:00 7,1 6,2 6,6 14,6 20,8 7 4 11 6 S 1009,0 6 2,6
27.09.2020 07:00:00 7,2 5,5 6,6 14,6 20,9 5 3 10 6 SSW 1008,8 9 0,2
27.09.2020 06:00:00 7,4 4,7 6,7 14,8 20,9 6 3 10 5 S 1008,5 40 0,0
27.09.2020 05:00:00 7,6 4,9 6,4 14,9 20,9 6 4 12 6 SSE 1008,6 35 0,0
27.09.2020 04:00:00 7,5 5,3 6,8 15,0 20,9 7 4 13 7 SSE 1009,5 25 0,0
27.09.2020 03:00:00 7,4 5,2 6,9 15,2 21,0 9 5 15 8 SSE 1009,6 30 0,0
27.09.2020 02:00:00 7,1 5,6 6,9 15,3 21,0 8 4 10 6 SSE 1009,8 30 0,0
27.09.2020 01:00:00 6,9 5,4 3,9 15,5 21,0 6 3 10 5 SSE 1009,7 40 0,0
27.09.2020 00:00:00 6,0 4,5 3,3 15,8 21,0 3 2 9 5 SW 1009,4 40 0,2
26.09.2020 23:00:00 6,8 5,1 5,2 16,0 21,1 6 4 9 5 S 1009,1 40 0,0
26.09.2020 22:00:00 7,3 5,4 4,5 16,3 21,1 6 3 13 7 SSE 1009,2 40 0,0
26.09.2020 21:00:00 7,0 5,1 4,3 16,5 21,1 5 3 9 5 SSE 1009,1 40 0,0
26.09.2020 20:00:00 7,8 4,7 5,2 16,7 21,2 4 2 13 7 N 1009,2 40 0,0
26.09.2020 19:00:00 8,8 5,0 8,6 16,8 21,1 9 5 23 12 W 1009,2 40 0,0
26.09.2020 18:00:00 10,3 5,5 11,0 16,8 21,2 16 8 32 17 WNW 1009,3 40 0,0
26.09.2020 17:00:00 10,7 6,8 9,0 16,8 21,2 8 5 36 20 NNW 1009,5 40 0,2
26.09.2020 16:00:00 9,3 6,4 7,8 16,8 21,2 23 13 45 25 NNW 1010,2 15 2,2
26.09.2020 15:00:00 9,3 5,7 7,8 16,6 21,3 23 12 39 21 N 1010,1 8 3,2
26.09.2020 14:00:00 10,1 6,8 7,9 16,4 21,3 12 6 55 30 WSW 1010,3 40 1,2
26.09.2020 13:00:00 12,0 5,8 13,0 16,2 21,3 18 10 37 20 NNW 1010,2 8 0,0
26.09.2020 12:00:00 11,6 6,5 8,9 16,0 21,3 12 7 20 11 W 1011,3 40 0,0
26.09.2020 11:00:00 9,4 6,5 8,8 15,9 21,3 17 9 28 15 WNW 1012,2 6 0,4
26.09.2020 10:00:00 9,7 6,6 9,2 15,9 21,4 5 3 11 6 WNW 1012,5 40 0,0
26.09.2020 09:00:00 9,0 6,4 8,0 16,0 21,4 3 1 11 6 SSE 1012,7 40 0,4
26.09.2020 08:00:00 9,0 6,1 8,1 16,1 21,4 6 3 12 7 SE 1012,8 40 0,0
26.09.2020 07:00:00 8,3 5,9 4,9 16,3 21,4 8 4 10 6 SW 1012,7 40 0,0
26.09.2020 06:00:00 7,9 5,4 6,2 16,4 21,4 8 4 14 8 WSW 1012,5 30 0,0
26.09.2020 05:00:00 8,8 5,4 7,8 16,6 21,5 9 5 30 16 W 1012,2 20 0,0
26.09.2020 04:00:00 9,7 5,3 8,9 16,8 21,5 27 15 49 26 NW 1012,2 20 0,0
26.09.2020 03:00:00 10,2 4,6 9,1 17,0 21,5 11 6 32 17 NW 1011,8 60 0,0
26.09.2020 02:00:00 10,6 4,7 9,8 17,2 21,5 22 12 38 20 WNW 1011,6 60 0,0
26.09.2020 01:00:00 10,1 5,9 8,7 17,4 21,5 14 7 27 14 WNW 1011,6 60 0,0
26.09.2020 00:00:00 9,6 5,9 8,8 17,6 21,6 13 7 35 19 W 1011,4 60 0,0
25.09.2020 23:00:00 10,0 6,2 8,5 17,8 21,6 16 9 33 18 WNW 1011,1 40 0,0
25.09.2020 22:00:00 9,5 6,9 8,4 18,1 21,6 15 8 40 22 WNW 1010,9 9 0,4
25.09.2020 21:00:00 9,8 6,1 8,4 18,3 21,6 27 15 44 24 NW 1009,9 20 0,2
25.09.2020 20:00:00 10,0 6,2 8,8 18,6 21,6 22 12 48 26 NW 1008,9 40 0,0
25.09.2020 19:00:00 11,8 5,4 11,1 18,8 21,6 20 11 39 21 WNW 1007,6 40 0,0
25.09.2020 18:00:00 11,5 7,4 9,4 18,9 21,6 19 10 64 35 WNW 1007,3 40 0,2
25.09.2020 17:00:00 14,6 4,6 14,4 18,9 21,6 22 12 37 20 NW 1006,0 40 0,0
25.09.2020 16:00:00 14,5 6,1 15,2 18,8 21,6 24 13 45 24 WNW 1005,6 40 0,0
25.09.2020 15:00:00 12,4 7,3 12,0 18,6 21,7 28 15 54 29 WNW 1005,7 30 0,0
25.09.2020 14:00:00 13,9 6,0 14,5 18,4 21,7 23 12 45 24 NW 1004,9 40 0,0
25.09.2020 13:00:00 15,1 6,1 14,6 18,2 21,7 20 11 35 19 W 1004,9 40 0,0
25.09.2020 12:00:00 13,5 6,6 12,5 18,1 21,7 3 2 25 14 S 1006,0 40 0,2
25.09.2020 11:00:00 12,7 6,3 12,8 18,2 21,7 12 7 21 11 SSW 1006,7 40 0,0
25.09.2020 10:00:00 12,4 6,9 11,6 18,3 21,7 8 5 16 9 SW 1006,7 40 0,0
25.09.2020 09:00:00 11,3 8,5 10,7 18,5 21,7 6 3 15 8 SSW 1006,3 40 0,0

tt = Température de l'air
td = dewpoint
tt 5cm = Température de l'air 5cm
tt -20cm = Température de l'air -20cm
tt -100cm = Température de l'air -100cm
ff = Vitesse du vent
fx = gusts
dd = Direction du vent
ppp = reduced air pressure
vv = visibility
rr = Quantités de précipitations

stations d'obs. à proximité